Weather History for Hebron, NE

Change the Weather History Date:

Friday, March 2, 2012

  Actual Average Record
Temperature  
Mean Temperature 42 °F -  
Max Temperature 52 °F 50 °F 78 °F (1992)
Min Temperature 31 °F 25 °F -2 °F (2014)
Degree Days  
Heating Degree Days 24    
Moisture  
Dew Point 22 °F    
Average Humidity 54    
Maximum Humidity 84    
Minimum Humidity 20    
Precipitation  
Precipitation 0.00 in - - ()
Sea Level Pressure  
Sea Level Pressure 29.79 in    
Wind  
Wind Speed 11 mph (NNW)    
Max Wind Speed 18 mph    
Max Gust Speed 26 mph    
Visibility 10 miles    
Events      
Averages and records for this station are not official NWS values.
T = Trace of Precipitation, MM = Missing Value Source: NWS Daily Summary

Daily Weather History Graph

Daily Weather History Graph

Search for Another Location

Airport:

Trip Planner

Search our weather history database for the weather conditions in past years. The results will help you decide how hot, cold, wet, or windy it might be!

Date:

Astronomy

Mar. 02, 2012 Rise Set
Actual Time 7:01 AM CST 6:23 PM CST
Civil Twilight 6:34 AM CST 6:51 PM CST
Nautical Twilight 6:02 AM CST 7:22 PM CST
Astronomical Twilight 5:31 AM CST 7:53 PM CST
Moon 12:36 PM CST (3/2) 2:52 AM CST (3/2)
Length of Visible Light 12h 16m
Length of Day
11h 22m
Waxing Gibbous, 66% of the Moon is Illuminated
Mar 2
Waxing Gibbous
Mar 8
Full
Mar 14
Last Quarter
Mar 22
New
Mar 30
First Quarter

Hourly Weather History & Observations

Time (CST) Temp. Windchill Dew Point Humidity Pressure Visibility Wind Dir Wind Speed Gust Speed Precip Events Conditions
12:15 AM 36.7 °F 29.9 °F 30.9 °F 80% 29.71 in 10.0 mi NNE 9.2 mph 17.3 mph N/A   Overcast
12:35 AM 36.1 °F 27.3 °F 30.6 °F 80% 29.73 in 10.0 mi North 13.8 mph 19.6 mph N/A   Scattered Clouds
12:55 AM 35.6 °F 25.2 °F 30.2 °F 81% 29.70 in 10.0 mi North 18.4 mph 26.5 mph N/A   Clear
1:15 AM 35.1 °F 24.8 °F 30.0 °F 82% 29.71 in 10.0 mi North 17.3 mph 24.2 mph N/A   Clear
1:35 AM 34.9 °F 25.7 °F 29.3 °F 80% 29.71 in 10.0 mi North 13.8 mph 24.2 mph N/A   Clear
1:55 AM 34.9 °F 25.7 °F 29.1 °F 79% 29.71 in 10.0 mi North 13.8 mph 19.6 mph N/A   Clear
2:35 AM 34.7 °F 26.9 °F 28.9 °F 79% 29.68 in 10.0 mi North 10.4 mph - N/A   Clear
2:55 AM 34.2 °F 26.8 °F 28.8 °F 81% 29.67 in 10.0 mi NNE 9.2 mph - N/A   Clear
3:15 AM 34.2 °F 25.7 °F 28.4 °F 79% 29.67 in 10.0 mi North 11.5 mph - N/A   Clear
3:35 AM 34.0 °F 25.5 °F 28.4 °F 80% 29.67 in 10.0 mi North 11.5 mph - N/A   Clear
3:55 AM 33.3 °F 25.7 °F 28.4 °F 82% 29.69 in 10.0 mi NNW 9.2 mph - N/A   Mostly Cloudy
4:15 AM 33.1 °F 25.5 °F 28.4 °F 83% 29.69 in 10.0 mi NNW 9.2 mph - N/A   Overcast
4:35 AM 33.6 °F 24.6 °F 28.2 °F 81% 29.70 in 10.0 mi North 12.7 mph 18.4 mph N/A   Mostly Cloudy
4:55 AM 33.8 °F 27.0 °F 28.2 °F 80% 29.71 in 10.0 mi NNW 8.1 mph - N/A   Overcast
5:15 AM 33.3 °F 24.6 °F 28.4 °F 82% 29.72 in 10.0 mi NNW 11.5 mph - N/A   Overcast
5:35 AM 33.1 °F 25.5 °F 28.4 °F 83% 29.71 in 10.0 mi NNW 9.2 mph - N/A   Overcast
5:55 AM 32.9 °F 25.3 °F 28.4 °F 84% 29.71 in 10.0 mi NNW 9.2 mph - N/A   Overcast
6:15 AM 32.9 °F 25.3 °F 28.4 °F 84% 29.73 in 10.0 mi NNW 9.2 mph - N/A   Overcast
6:35 AM 32.9 °F 24.1 °F 28.2 °F 83% 29.73 in 10.0 mi NNW 11.5 mph - N/A   Mostly Cloudy
6:55 AM 33.1 °F 24.9 °F 28.0 °F 82% 29.74 in 10.0 mi NNW 10.4 mph 16.1 mph N/A   Scattered Clouds
7:15 AM 32.7 °F 24.5 °F 27.9 °F 82% 29.75 in 10.0 mi NW 10.4 mph - N/A   Scattered Clouds
7:35 AM 32.7 °F 25.7 °F 27.5 °F 81% 29.76 in 10.0 mi NNW 8.1 mph - N/A   Mostly Cloudy
7:55 AM 33.3 °F 26.4 °F 27.3 °F 79% 29.76 in 10.0 mi NNW 8.1 mph - N/A   Mostly Cloudy
8:15 AM 33.8 °F 26.4 °F 27.5 °F 78% 29.77 in 10.0 mi NNW 9.2 mph - N/A   Mostly Cloudy
8:35 AM 34.3 °F 26.5 °F 28.4 °F 79% 29.79 in 10.0 mi NW 10.4 mph - N/A   Scattered Clouds
8:55 AM 35.4 °F 27.8 °F 28.0 °F 75% 29.79 in 10.0 mi NW 10.4 mph - N/A   Clear
9:15 AM 37.4 °F 30.3 °F 27.3 °F 67% 29.80 in 10.0 mi NNW 10.4 mph - N/A   Clear
9:35 AM 38.7 °F 32.9 °F 25.9 °F 60% 29.80 in 10.0 mi NNW 8.1 mph - N/A   Clear
9:55 AM 40.1 °F 33.6 °F 25.2 °F 55% 29.80 in 10.0 mi NNW 10.4 mph - N/A   Clear
10:15 AM 42.8 °F 37.0 °F 24.3 °F 48% 29.81 in 10.0 mi North 10.4 mph - N/A   Clear
10:35 AM 44.6 °F 40.7 °F 20.5 °F 38% 29.81 in 10.0 mi North 6.9 mph - N/A   Clear
10:55 AM 45.3 °F 40.1 °F 17.8 °F 33% 29.82 in 10.0 mi North 10.4 mph - N/A   Clear
11:15 AM 47.5 °F - 15.6 °F 28% 29.83 in 10.0 mi North 8.1 mph 16.1 mph N/A   Clear
11:35 AM 48.2 °F - 14.9 °F 26% 29.83 in 10.0 mi NNW 12.7 mph 17.3 mph N/A   Clear
11:55 AM 48.9 °F - 15.1 °F 26% 29.83 in 10.0 mi NNW 12.7 mph 17.3 mph N/A   Clear
12:15 PM 50.2 °F - 14.7 °F 24% 29.83 in 10.0 mi NW 10.4 mph 18.4 mph N/A   Clear
12:35 PM 50.5 °F - 12.9 °F 22% 29.83 in 10.0 mi NW 13.8 mph 19.6 mph N/A   Clear
12:55 PM 50.9 °F - 11.7 °F 21% 29.82 in 10.0 mi NNW 12.7 mph 19.6 mph N/A   Clear
1:15 PM 51.8 °F - 11.7 °F 20% 29.81 in 10.0 mi NNW 12.7 mph 18.4 mph N/A   Clear
1:35 PM 51.4 °F - 12.4 °F 21% 29.81 in 10.0 mi NW 13.8 mph 19.6 mph N/A   Clear
1:55 PM 49.5 °F - 12.6 °F 23% 29.81 in 10.0 mi NNW 15.0 mph 20.7 mph N/A   Scattered Clouds
2:15 PM 51.8 °F - 14.0 °F 22% 29.81 in 10.0 mi NNW 11.5 mph 20.7 mph N/A   Scattered Clouds
2:35 PM 52.0 °F - 17.2 °F 25% 29.81 in 10.0 mi NNW 9.2 mph 24.2 mph N/A   Scattered Clouds
2:55 PM 50.9 °F - 17.6 °F 27% 29.82 in 10.0 mi NNW 13.8 mph - N/A   Scattered Clouds
3:15 PM 49.1 °F - 19.2 °F 31% 29.83 in 10.0 mi NNW 15.0 mph 21.9 mph N/A   Scattered Clouds
3:55 PM 48.6 °F - 18.9 °F 31% 29.84 in 10.0 mi NNW 12.7 mph 24.2 mph N/A   Clear
4:15 PM 49.3 °F - 18.7 °F 30% 29.85 in 10.0 mi NNW 16.1 mph 23.0 mph N/A   Clear
4:35 PM 48.4 °F - 18.3 °F 30% 29.86 in 10.0 mi NNW 17.3 mph 24.2 mph N/A   Clear
4:55 PM 47.7 °F - 16.2 °F 28% 29.88 in 10.0 mi NW 16.1 mph 26.5 mph N/A   Clear
5:15 PM 47.3 °F - 13.1 °F 25% 29.88 in 10.0 mi NNW 17.3 mph 20.7 mph N/A   Clear
5:35 PM 45.7 °F 39.5 °F 11.8 °F 25% 29.89 in 10.0 mi NNW 13.8 mph 25.3 mph N/A   Clear
5:55 PM 44.6 °F 39.2 °F 13.5 °F 28% 29.90 in 10.0 mi NNW 10.4 mph 18.4 mph N/A   Clear
6:15 PM 43.2 °F 37.4 °F 13.6 °F 30% 29.90 in 10.0 mi NNW 10.4 mph - N/A   Clear
6:35 PM 41.7 °F 37.3 °F 13.3 °F 32% 29.91 in 10.0 mi NNW 6.9 mph - N/A   Clear
6:55 PM 39.4 °F 37.2 °F 14.4 °F 36% 29.92 in 10.0 mi NNW 3.5 mph - N/A   Clear
7:15 PM 36.9 °F - 15.4 °F 42% 29.91 in 10.0 mi Calm Calm - N/A   Clear
7:35 PM 34.3 °F - 16.3 °F 48% 29.92 in 10.0 mi Calm Calm - N/A   Clear
7:55 PM 32.9 °F - 16.7 °F 51% 29.92 in 10.0 mi Calm Calm - N/A   Clear
8:15 PM 31.1 °F - 18.1 °F 59% 29.93 in 10.0 mi Calm Calm - N/A   Clear
8:35 PM 35.8 °F 28.8 °F 18.5 °F 50% 29.94 in 10.0 mi North 9.2 mph - N/A   Scattered Clouds
8:55 PM 36.7 °F 29.9 °F 18.9 °F 49% 29.95 in 10.0 mi NNW 9.2 mph - N/A   Scattered Clouds
9:15 PM 36.0 °F 29.0 °F 19.0 °F 50% 29.96 in 10.0 mi NNW 9.2 mph - N/A   Clear
9:35 PM 34.9 °F 28.3 °F 19.2 °F 53% 29.96 in 10.0 mi NW 8.1 mph - N/A   Clear
9:55 PM 32.9 °F 25.9 °F 19.8 °F 59% 29.97 in 10.0 mi NW 8.1 mph - N/A   Clear
10:15 PM 34.0 °F 25.0 °F 18.9 °F 54% 29.97 in 10.0 mi NW 12.7 mph - N/A   Clear
10:35 PM 32.7 °F 25.0 °F 19.2 °F 58% 29.98 in 10.0 mi NW 9.2 mph - N/A   Clear
10:55 PM 31.3 °F 23.9 °F 19.4 °F 61% 29.98 in 10.0 mi NW 8.1 mph - N/A   Clear
11:15 PM 30.0 °F 22.4 °F 19.4 °F 65% 29.99 in 10.0 mi NW 8.1 mph - N/A   Clear
11:35 PM 30.9 °F 24.3 °F 19.2 °F 62% 29.99 in 10.0 mi WNW 6.9 mph - N/A   Clear